map of CUB home
CUB - Airport
Location
City:  Columbia, South Carolina, United States
Name:Jim Hamilton L B Owens Airport
ICAO:KCUB
IATA:CUB
FAA LID:CUB

Details
Type:Airport (Airfield)
Use:Public/Civil
Latitude:3358'14"N (33.970472)
Longitude:8059'43"W (-80.995249)
Datum:WGS 1984
Elevation:193 ft (59 m)
Variation:7.50W (WMM2015 magnetic declination)
-0.06 annual change
Runways:1
Longest:5011 × 75 ft (1527 × 23 m), paved

Time
Time Zone:UTC-5 (DST-4)
Local Time:

Weather
METAR:KCUB 201353Z AUTO 00000KT 10SM CLR 28/20 A3016 RMK AO2 SLP209 T02780200
TAF:KCUB 201138Z 2012/2112 VRB03KT P6SM SKC
FM201500 09005KT P6SM SCT050
FM210100 VRB03KT P6SM SKC

Related Locations
Nearby:
Farthest:MQZ: 11521 mi / 18541 km
Margaret River [Margaret River Airport], WA, AU

Find:

   beyond  
but within

Other Information
Maps:
NOTAMs:
Links:
Sources:

  
  • flag of United States
  • flag of South Carolina
  • flag of Columbia
  

Sectional Chart

Flight Planning
at skyvector.com

Satellite Image

Google Maps Satellite view

 

Copyright © 2004-2018 Karl L. Swartz. All rights reserved.
The Great Circle Mapper name and logo are trademarks of the Great Circle Mapper.
All other trademarks mentioned herein belong to their respective owners.
Please see credits for attibutions and further copyright information.

  Follow gcmap on Facebook Follow gcmap on Twitter Follow gcmap on Google+ GCmap on LinkedIn

hCard Microformat

Geo Microformat